Погода Гышгы

Погода Гышгы : погода сейчас, прогноз погоды и архив. Всё, что Вы хотите узнать о погоде Гышгы!

Поиск расширенной информации на нашем сайте:

Другие новости

Новости СМИ2

Главная страница сайта

Новости сайта

03.07.2017

Напоминаем, что на нашем специализированном сайте Метеоцентр.Азия вы можете получить высокодетализированные автоматические прогнозы погоды по пунктам России, СНГ и мира в авиационном формате (включающие направление и скорость ветра, видимость, явления погоды, количество и форму облачности, нижнюю и верхнюю границу облачности).

Рекомендуем: Paprika паприка пицца вегетарианская pizza vegetariana.

Погода Гышгы - сегодня

Время (UTC), дата Ветер
(°,м/с) 
Видим.   Явления Облачность Т
(°С)
Тd
(°С)
f(%) Тe
(°С)
Pmin
(гПа)
dP
(гПа)
Po
(мм)
O2
(г/м3)
Тmin Tmax R s Состояние
почвы
03 20.05.18 260 (З) 4000 м    3/0 средняя 
[Ac lent]
+13.7 +3.6 50 +14  1019.6  0.3  710  272           
06 20.05.18 020 (С) 4000 м    3/0 верхняя 
[Ci sp]
+23.4 -0.5 20 +23  1017.1  -0.1  710  263  +11.6         
09 20.05.18 010 (С) 4000 м    3/0 верхняя 
[Ci sp]
+26.5 -1.9 15 +27  1014.8  -1.5  709  260           
12 20.05.18 070 (В) 4000 м    3/0 верхняя 
[Ci sp]
+27 -1.9 15 +27  1013.4  -1.2  708  260           
15 20.05.18 050 (СВ) 4000 м    3/0 верхняя 
[Ci sp]
+24.4 -0.7 19 +24  1014.1  0.1  708  262    +27.5       
18 20.05.18 040 (СВ) 4000 м    ясно 
+17.6 +2.5 36 +18  1017.4  1.6  709  268    +27.5       
21 20.05.18 240 (ЮЗ) 4000 м    ясно 
+15.1 +3.8 47 +16      751  286           
00 21.05.18 220 (ЮЗ) 4000 м    ясно 
+14.4 +4.5 51 +15  1018.1  709  271           
03 21.05.18 260 (З) 4000 м    ясно 
+14.4 +1.3 41 +16  1018.1  -0.1  709  271           
06 21.05.18 тихо ()   4000 м    ясно 
+25.6 -0.9 17 +26  1015  -0.2  709  261  +12         
09 21.05.18 280 (З) 4000 м    3/1 1500 м верхняя 
[Cu med, cong|Ci sp]
+27.4 +0.4 17 +27  1013.6  -1  708  259           
12 21.05.18 340 (С) 4000 м    4/4 1500 м 
[Cu med, cong]
+28.1 +1.5 18 +28  1012.5  -0.8  708  258           
15 21.05.18 350 (С) 4000 м    6/0 верхняя 
[Ci sp]
+25.4 +1.1 20 +25  1013.6  0.5  708  261          полностью
покрыта
пылью 
18 21.05.18 тихо ()   4000 м    ясно 
+18.9 +5.9 43 +19  1016.4  1.1  709  266    +28.3       
21 21.05.18 220 (ЮЗ) 4000 м    ясно 
+16.1 +4.6 46 +17  1016.5  -0.6  708  269           
00 22.05.18 240 (ЮЗ) 4000 м    ясно 
+13.6 +4.3 53 +14  1017.2  708  271           
03 22.05.18 240 (ЮЗ) 4000 м    ясно 
+15.9 +4.6 47 +17  1017.7  1.1  709  269           
06 22.05.18 170 (Ю) 4000 м    ясно 
+26.5 +1.9 20 +27  1015.3  0.2  709  260  +13.2         
09 22.05.18 180 (Ю) 4000 м    4/4 1500 м 
[Cu hum]
+29.2 +2.9 19 +29  1014.4  -0.3  709  258           
12 22.05.18 270 (З) 4000 м    6/6 1500 м 
[Cu med, cong]
+30.4 +0.9 15 +30  1012.5  -1.4  708  257           
15 22.05.18 010 (С) 4000 м    3/0 средняя 
[Ac trans]
+28.6 -3 13 +29  1013.5  0.3  708  259    +31       
18 22.05.18 010 (С) 4000 м    3/0 средняя 
[Ac cast]
+24 +1.5 23 +24  1015.2  0.7  709  262    +31       
21 22.05.18 220 (ЮЗ) 4000 м    ясно 
+18.2 +5.8 44 +20  1016.5  709  267           
00 23.05.18 240 (ЮЗ) 4000 м    ясно 
+15.8 +4 45 +17  1017.6  0.4  709  269           
03 23.05.18 280 (З) 4000 м    ясно 
+17.7 +4.1 40 +19  1018  0.8  710  268           
Время (UTC), дата Ветер
(°,м/с) 
Видим.   Явления Облачность Т
(°С)
Тd
(°С)
f(%) Тe
(°С)
Pmin
(гПа)
dP
(гПа)
Po
(мм)
O2
(г/м3)
Тmin Tmax R s Состояние
почвы

Для получения пояснительной информации подведите курсор к названию столбца.

ПОГОДА Гышгы - архив

Всё, что Вы хотите узнать о погоде Гышгы - удобно и подробно!

Выберите нужную дату (начиная с 1 января 2015* года) и нажмите кнопку "Найти".
Будут отображены архивные сводки погоды по пункту Гышгы, начиная с указанной даты.


Отображать данные в формате CSV (для использования в таблицах Excel)


Внимание! Наш архив погоды предназначен исключительно для личного некоммерческого использования в познавательных целях. Если Вам необходимы официальные справки о состоянии погоды (для производственных, юридических, коммерческих и т.п. целей), обращайтесь в органы Росгидромета.

*Примечание: данная дата относится к архиву по метеостанциям СССР (Россия, СНГ, Балтия).
Архив по метеостанциям Зарубежной Европы и Азии (кроме Китая) хранится 10 дней, по другим регионам земного шара (Китай, Африка, Америка, Австралия, Океания) - 1 день.

Гышгы - район местоположения метеостанции


Название, широта, долгота, высота метеостанции:
Гышгы (Кушка) 35.3°ш. 62.3°д. 625 м над ур. моря [Туркменистан]

Дополнительная информация

В oтличие oт бoльшинства пoгoдных сайтoв мы публикуем пoдрoбную метеoинфoрмацию в детальнoм прoфессиoнальнoм фoрмате.

Характеристики температуры и влажнoсти вoздуха измеряются на высoте 2 м в тени вдали oт зданий и деревьев.
Скoрoсть ветра измеряется на высoте 10 м (на урoвне рoста челoвека скoрoсть ветра ниже в 1.5-2 раза). Если метеoстанция нахoдится в гoрoде или в лесу, тo скoрoсть ветра занижена на 2-4 м/с пo сравнению с oткрытым местoм. Скoрoсть ветра над акватoриями крупных рек и oзёр, а также на вершинах хoлмoв на 2-5 м/с выше, чем в oбычных услoвиях.
Атмoсфернoе давление в разных тoчках местнoсти мoжет значительнo oтличаться oт давления на метеoстанции, в зависимoсти oт услoвий рельефа (при пoдъёме на 10 м давление пoнижается примернo на 1 мм рт.ст.).